WET,Max TemperatureF,Mean TemperatureF,Min TemperatureF,Max Dew PointF,MeanDew PointF,Min DewpointF,Max Humidity, Mean Humidity, Min Humidity, Max Sea Level PressureIn, Mean Sea Level PressureIn, Min Sea Level PressureIn, Max VisibilityMiles, Mean VisibilityMiles, Min VisibilityMiles, Max Wind SpeedMPH, Mean Wind SpeedMPH, Max Gust SpeedMPH,PrecipitationIn, CloudCover, Events, WindDirDegrees
2012-10-1,79,70,60,64,61,59,94,75,43,30.17,30.12,30.09,6,5,3,15,5,,0.00,1,,68
2012-10-2,80,71,62,63,62,59,94,73,46,30.16,30.11,30.09,6,5,5,17,9,,0.00,2,,74
2012-10-3,80,72,64,64,61,59,88,70,47,30.10,30.04,29.98,6,6,4,21,11,,0.00,2,,82
2012-10-4,81,74,66,61,60,59,78,66,39,29.99,29.93,29.89,6,6,5,20,13,,0.00,2,,86
2012-10-5,79,72,64,64,63,61,88,73,47,30.13,30.06,29.98,5,5,2,9,6,,0.00,5,,257
2012-10-6,81,71,61,66,62,59,94,76,44,30.16,30.12,30.09,6,4,0,13,5,,0.00,2,Fog,64
2012-10-7,87,75,63,64,62,59,94,68,38,30.15,30.10,30.06,6,4,3,17,8,,0.00,2,,82
2012-10-8,79,69,59,64,60,55,88,72,44,30.15,30.09,30.06,6,5,4,10,4,,0.00,2,,238
2012-10-9,76,66,57,68,61,54,94,75,59,30.09,30.04,30.01,5,4,1,9,3,,0.00,2,,304
2012-10-10,76,68,59,70,63,54,94,85,69,30.06,30.02,29.98,5,3,0,10,4,,0.00,5,Fog,235
2012-10-11,75,70,66,68,66,64,94,86,73,30.07,30.04,30.01,5,4,2,15,8,,0.02,6,Rain,244
2012-10-12,74,70,64,64,61,57,88,75,52,30.09,30.05,30.01,9,5,2,13,9,,0.00,4,,292
2012-10-13,73,66,59,61,57,55,88,72,44,30.09,30.04,30.01,6,5,2,12,6,,0.00,4,,264
2012-10-14,74,66,57,63,58,54,88,74,57,30.01,29.95,29.89,6,5,2,15,6,,0.00,3,,263
2012-10-15,67,61,55,63,51,45,83,64,41,30.06,29.97,29.89,6,5,1,21,12,,0.00,3,Rain,326
2012-10-16,75,63,51,59,51,46,88,65,39,30.05,29.98,29.92,6,4,1,21,8,,0.00,1,,86
2012-10-17,78,69,60,59,55,50,88,68,41,29.94,29.86,29.80,6,6,5,14,9,,0.00,4,,99
2012-10-18,75,66,56,63,57,53,94,80,57,29.81,29.71,29.62,6,3,1,23,7,,0.00,4,,195
2012-10-19,69,63,57,55,53,52,88,73,52,29.89,29.84,29.80,6,4,1,16,13,28,0.04,6,Rain,195
2012-10-20,69,61,53,57,53,50,88,73,51,29.99,29.91,29.86,6,5,4,18,6,,0.02,5,Rain,247
2012-10-21,71,64,58,59,54,51,88,71,48,30.07,30.02,29.98,6,5,1,18,10,,0.00,5,,201
2012-10-22,78,67,56,57,54,52,88,65,36,30.08,30.03,29.98,6,5,1,17,7,,0.00,5,,86
2012-10-23,82,72,63,61,58,51,83,63,39,30.04,29.99,29.95,6,5,4,20,14,,0.02,5,Rain,94
2012-10-24,77,70,64,64,62,57,94,75,44,29.98,29.92,29.89,6,4,1,18,11,25,0.24,5,Rain,166
2012-10-25,69,64,60,64,62,59,94,87,71,29.89,29.77,29.74,5,4,1,24,13,40,1.85,4,Rain-Thunderstorm,206
2012-10-26,70,66,62,66,63,57,94,88,73,29.77,29.72,29.68,5,4,2,22,15,28,1.34,3,Rain,247
2012-10-27,70,66,62,61,59,57,94,75,57,29.89,29.82,29.74,6,5,4,16,14,,0.08,4,Rain,295
2012-10-28,70,64,59,60,58,55,94,79,57,30.03,29.96,29.89,6,5,4,12,8,,0.00,4,Rain,313
2012-10-29,68,62,57,58,57,55,88,78,58,30.01,29.90,29.80,6,5,5,15,10,,0.00,5,,97
2012-10-30,64,60,57,63,57,55,94,89,73,29.79,29.61,29.47,5,4,2,16,7,,0.91,5,Rain,116
2012-10-31,68,60,52,59,55,50,94,81,59,29.70,29.64,29.50,6,6,4,16,5,,0.01,5,Rain,263